ISIS 1

Satellite information

Favourite Embed

Satellite Type and Status

PAYLOADIN ORBIT

Key statistics

Satellite ISIS 1 at a glance.

Uptime

20732

Days in orbit

Revolutions

≈ 11.3

Per day

Orbit

HEO

HEO

Inclination

88.5

Latest

Satellite identification and parameters

Extended collection of information and parameters for ISIS 1.

Object identification

Identified? True

Debris? False

Object name: ISIS 1

International designator: 1969-009A

Object number (NORAD): 3669

Object ID (CCSDS): 3669

Country: CANADA (CA)

Current information (Y/N): Y

RCS size: LARGE

Orbital parameters

Period: 127.396 minutes

Inclination: 88.4532 deg

SMA: 8386.83 km

Apoapsis: 3441.041 km

Periapsis: 576.348 km

RAAN: 169.0755 deg

Eccentricy: 0.1707852

Argument of periapsis: 343.8075 deg

Mean anomaly: 11.4242 deg

Mean motion: 11.30331999 rev/day

Mean motion (dot): 0.00000205 rev/day2

B* drag term: 0.00014403 1/REarth

Two-line elements (TLE)

Creation date: Nov. 3, 2025, 11:16 p.m.

Reference frame: TEME

Reference center: EARTH

Epoch: Nov. 3, 2025, 2:04 p.m. UTC

TLE line 0: 0 ISIS 1

TLE line 1: 1 3669U 69009A 25307.58679560 .00000205 00000-0 14403-3 0 9993

TLE line 2: 2 3669 88.4532 169.0755 1707852 343.8075 11.4242 11.30331999334282

Live tracking on map

Real-time ground track for satellite ISIS 1.

In-orbit conjunctions

A list of the most updated potential collisions computed for object ISIS 1.

Target Orbit TCA Probability of collision Miss distance Type
CZ-6A DEB LEO 2024-12-20 10:13:51 0.001702058 427.0 (m) DEBRIS
IRIDIUM 33 DEB LEO 2024-05-31 20:26:10 0.0001022763 268.0 (m) DEBRIS

Associated space launch

ISIS 1 (International Satellite for Ionosphere Studies) was an ionospheric observatory instrumented with sweep- and fixed-frequency ionosondes, a VLF receiver, energetic and soft particle detectors, an ion mass spectrometer, an electrostatic probe, an electrostatic analyzer, a beacon transmitter, and a cosmic noise experiment.

ISIS 1 was lifted into orbit during the mission ‘Thor Delta E1 | Isis 1’, on board a Thor Delta E1 space rocket.

The launch took place on Jan. 30, 1969, 6:46 a.m. from Space Launch Complex 2E.

For more information about the launch, click the button.

Launch to space Thor Delta E1 | Isis 1
Thor Delta E1 | Isis 1

Agency: N/A

Status: Launch Successful

Launch date: Jan. 30, 1969, 6:46 a.m. UTC

Rocket: Thor Delta E1

Launch pad: Space Launch Complex 2E

Location: Vandenberg SFB, CA, USA

...

Latest news about this satellite

There are no fresh news available about this satellite. Check back as we update our databases every day.


Newsletter sign-up

Weekly statistics, charts and insights to help you stay on top of the space industry.